India Forums Logo

Hum ne li hai... Shapath

India Forums > Forum Index > Hum ne li hai... Shapath
Hum ne li hai... Shapath is a story of tough cops against the flawed system with thrilling and contemporary police cases weaved in.
<< | 1 | 2 | 3 | 4 | 5 | 6 | 7 | 8 | 9 | 10 | 11 | 12 | 13 | 14 | 15 | 16 | 17 | >>
TIDTopic SubjectStart DateLast Entry
3018994Madhura naik sizzles;Priya-Ram to fight in BALH6/6/2012 1:25:48 AM6/6/2012 7:34:56 AM
3018999Madhura Naik stuck in a rave party(birthday party)6/6/2012 1:31:23 AM6/6/2012 7:30:32 AM
3019441*~GOTW:Bolly-TellyPairing~*6/6/2012 5:42:21 AM6/12/2012 6:35:26 AM
3021725|*|Handsome And Suave Inspector Abhigyan|*|!!!6/7/2012 5:12:03 AM8/17/2012 5:50:25 AM
3021898Worlds Most Sad Lovestory VM-Gautam-Shikha6/7/2012 6:45:31 AM6/11/2012 4:24:35 AM
3024761Love Story 2012 Still Uptodating6/8/2012 10:55:55 AM6/25/2012 12:46:25 PM
3027178*~Shapathian Of The Week#13~*6/10/2012 3:26:32 AM6/12/2012 5:38:15 AM
3027688Child labor6/10/2012 10:42:54 AM6/11/2012 7:12:26 AM
3028666*~HNLHS Reloaded Media Center~*6/11/2012 3:42:35 AM6/24/2012 1:21:43 AM
3028741Video updates6/11/2012 4:22:03 AM6/11/2012 4:22:03 AM
3029892HNLHS Team Party6/11/2012 12:18:24 PM7/30/2012 4:12:41 AM
3030072HNLHS Rules & Regulations (Updated)6/11/2012 1:58:09 PM8/11/2012 11:37:15 AM
3030230Tragic Love Story Of Gautam And Shikha6/11/2012 5:31:16 PM6/19/2012 3:55:17 AM
30313809 june 2012 epi WU still updating6/12/2012 8:15:57 AM6/12/2012 9:41:52 AM
303174910/06/2012 WU: Child Trafficking6/12/2012 10:13:43 AM6/17/2012 11:00:20 AM
3035469BIRTHDAY THREAD6/14/2012 8:21:08 AM6/19/2012 8:32:27 PM
3039831Rating 16 June Episode6/16/2012 5:20:53 PM6/16/2012 9:07:52 PM
3040130Hasan Zaidi aka Gautam's real name6/17/2012 1:17:46 AM6/17/2012 8:07:43 AM
3040153New VM !!!!6/17/2012 1:48:22 AM6/17/2012 7:41:56 PM
3041052A little thing to share6/17/2012 10:55:09 PM6/17/2012 10:55:09 PM
3041573Rating 17 June Episode6/18/2012 5:55:44 AM6/18/2012 6:44:04 AM
3041858COTW: Unscramble the Words (Closed)6/18/2012 8:41:39 AM6/24/2012 7:17:45 AM
304457217/06/2012 WU: Rich and Poor's Love6/19/2012 10:14:36 AM6/21/2012 7:21:05 AM
3045782A new member from facebook is here6/20/2012 1:55:50 AM10/9/2012 2:01:12 PM
3045966FF: Cops Vs Terrorists (UPDATED)!!!6/20/2012 3:57:34 AM6/24/2012 2:19:28 AM
3050874Which character?6/22/2012 6:49:24 AM6/25/2012 1:11:41 PM
3051834Viewers Feedback Time Too Lifeok...6/22/2012 2:07:26 PM7/11/2012 5:58:03 AM
3052881my dad passed away :'(6/23/2012 8:22:17 AM6/30/2012 2:09:59 PM
3054488OS: School Hijacked (UPDATED @ Pg7)6/24/2012 11:57:08 AM7/20/2012 12:21:59 PM
3054673Rating 23 June Episode6/24/2012 5:09:25 PM6/24/2012 5:09:25 PM
3054674Rating 24 June Episode6/24/2012 5:10:56 PM6/25/2012 3:49:37 AM
3055543COTW 1 Winners6/25/2012 7:21:59 AM6/29/2012 6:50:23 AM
3056164Short And Sweet Stories (Will Be Up Soon)6/25/2012 11:02:45 AM6/25/2012 11:07:07 AM
3057140Piyush Sachdev nominated for the Gold Awards6/26/2012 1:02:02 AM6/26/2012 1:51:06 AM
3057225PIYUSH NOMINATED FOR GOLD AWARDS! PLS VOTE FOR HIM6/26/2012 2:35:30 AM6/30/2012 2:55:02 AM
3057307*~Shapathian Of The Week#14~*6/26/2012 3:24:22 AM6/29/2012 5:23:03 AM
3057743GOTW: Drop a Word, Add A Word (Closed)6/26/2012 6:53:33 AM7/13/2012 10:33:50 AM
305776524/06/2012 WU: Ek Baap Ka Dard6/26/2012 7:02:01 AM6/26/2012 8:42:11 AM
3057869Your Fav Jodi Is...6/26/2012 8:09:48 AM6/26/2012 8:09:48 AM
3059928Wedding pics of Akangsha and Piyush6/27/2012 6:15:08 AM8/8/2012 12:03:24 AM
3063465Shapath to end on 29th June 2012-Hasan Zaidi6/28/2012 7:33:30 PM6/29/2012 7:40:50 AM
3066376Mohan Kapur to enter Amrit Manthan as Nimrit's sav6/30/2012 5:51:50 AM7/3/2012 9:12:40 AM
3068175Awesome Episodes!7/1/2012 1:14:39 PM7/3/2012 12:36:05 AM
3068505Shapath...Not going to end soon7/2/2012 12:57:29 AM7/3/2012 5:27:33 AM
3071215thnk god sapath is not gonna be end7/3/2012 7:01:15 AM7/3/2012 10:35:43 PM
3072426HNLHS Written Uptodate For 30th June 20127/3/2012 4:08:30 PM7/9/2012 7:16:27 AM
3073080New photos of shapath cast with some other people7/4/2012 1:20:34 AM7/6/2012 11:01:02 PM
3075384Sargun Mehta and Rahil Azam in HNLHS-TOI7/5/2012 2:00:32 AM7/9/2012 9:28:51 AM
3080660"Hum Ne Li Hai Shapath Trailer"7/7/2012 10:22:40 AM7/10/2012 5:32:40 AM
3081010Was Sargun aired in today's episode plzz comment7/7/2012 4:54:08 PM7/10/2012 4:18:40 PM
3083668COTW 2: Riddle Me This7/9/2012 1:50:15 PM7/22/2012 9:07:48 AM
3083788Written Up To Date 7th July 2012 Still Uptodating7/9/2012 4:00:49 PM7/9/2012 4:00:49 PM
3084647Guyz need u r help!!!7/10/2012 7:04:56 AM7/11/2012 7:10:04 AM
3084669TB:Thrill zone with Sarwar Ahuja!7/10/2012 7:16:42 AM7/14/2012 2:33:41 AM
3085447Piyush Vs Kapil7/10/2012 12:49:51 PM7/10/2012 12:49:51 PM
3085947Nishant Malkani to be a film star in Hum Ne Li Hai7/11/2012 12:32:16 AM7/14/2012 3:22:01 AM
3086150HNLHS Team Interview!!!!7/11/2012 3:41:39 AM7/11/2012 7:54:43 AM
30871327/8/2012 WU: Rave Party Part 27/11/2012 11:09:07 AM7/11/2012 12:11:44 PM
3090718Surprise Birthday Party for Sarwar Ahuja7/13/2012 4:51:46 AM7/18/2012 5:48:15 AM
3091419GOTW: Replace Someone7/13/2012 10:33:02 AM7/13/2012 10:33:02 AM
3092893New photo of Hasan Zaidi aka Inspector Gautam7/14/2012 5:22:59 AM7/15/2012 12:41:10 PM
3094065Best shooter7/14/2012 8:42:54 PM7/15/2012 3:43:54 AM
309406714th July episode ranking7/14/2012 8:45:09 PM7/14/2012 8:45:09 PM
3094616\\ happy birthday water nymph madhura naik //7/15/2012 5:26:30 AM7/20/2012 2:01:07 PM
3094762is shapath going offair ?7/15/2012 7:45:47 AM7/15/2012 8:59:49 AM
3095366Abhigyan's Expression !!!!7/15/2012 3:53:07 PM7/20/2012 10:24:00 AM
309937615/07/2012 WU: Suicide Bomber (Part 2)7/17/2012 11:10:27 AM7/20/2012 5:49:06 AM
3100890Anjali Mukhi to play Abhigyaan's love interest-TOI7/18/2012 7:49:06 AM8/4/2012 12:21:34 AM
3102801Madhura Naik on her birthday today7/19/2012 5:01:20 AM7/19/2012 5:01:20 AM
3102836Madhura Naik was the hero7/19/2012 5:28:04 AM7/19/2012 5:28:04 AM
3107160Off-screen photos of Shapath cast and crew7/21/2012 12:58:24 AM7/22/2012 12:36:10 AM
3107209Member/Guest/Visitor7/21/2012 1:31:57 AM7/28/2012 2:30:51 AM
3109015COTW 3: Guess the Show7/22/2012 9:17:05 AM7/24/2012 1:04:02 PM
3109280Something fishy...??7/22/2012 1:10:02 PM7/25/2012 2:14:44 AM
3109374GOTW: Movie Antakshari (Closed)7/22/2012 3:51:01 PM7/30/2012 4:06:22 AM
<< | 1 | 2 | 3 | 4 | 5 | 6 | 7 | 8 | 9 | 10 | 11 | 12 | 13 | 14 | 15 | 16 | 17 | >>